[[{"header":{"parameterUnit":"m.s-1","parameterCategory":2,"la1":30.2991,"la2":30.254,"lo1":-89.0895,"lo2":-89.0444,"dy":0.0017,"dx":0.0017,"nx":28,"ny":28,"refTime":"2024-10-01T09:00:00:Z","depth":"0","parameterNumber":2,"parameterNumberName":"U-component_of_CURRENTS"},"data":[0,0,0,0,0,0,0,0,0,0,0,0,0,0,0,0,0,0,0,0,0,0,0,0,0,0,0,0,0,0,0,0,0,0,0,0,0,0,0,0,0,0,0,0,0,0,0,0,0,0,0,0,0,0,0,0,0,0,0.0634,0.0633,0,0.0563,0.0562,0.0562,0.0511,0.051,0.051,0.0509,0.0449,0.0448,0.0447,0,0,0,0,0,0,0,0,0,0,0,0,0,0.0767,0.0765,0.0634,0.0633,0.0632,0.0563,0.0562,0.0562,0.0511,0.051,0.051,0.0509,0.045,0.0448,0.0447,0,0,0,0,0,0,0,0,0,0,0,0,0,0.0705,0.0764,0.0634,0.0597,0.0593,0.0563,0.0562,0.0561,0.0511,0.051,0.0509,0.0509,0.045,0.0449,0.0447,0.0454,0,0,0.0442,0.0441,0,0,0,0,0,0,0,0,0.0709,0.0701,0.0603,0.0599,0.0595,0.0543,0.0587,0.0525,0.0511,0.0544,0.0509,0.0508,0.0481,0.0477,0.0468,0.0451,0.0449,0.0442,0.0441,0.044,0.044,0,0,0,0,0,0,0,0.0713,0.0704,0.0607,0.0602,0.0597,0.0598,0.0588,0.0576,0.052,0.0541,0.0537,0.0527,0.0479,0.047,0.0466,0.0448,0.0442,0.0441,0.044,0.0439,0.0505,0.0508,0,0,0,0,0,0,0.0717,0.0707,0.061,0.0605,0.0649,0.0596,0.0585,0.0562,0.052,0.0512,0.0527,0.0524,0.0473,0.0468,0.0464,0.055,0.044,0.0439,0.0438,0.0503,0.0506,0.0509,0,0,0,0,0,0,0.072,0.0708,0.0612,0.0655,0.0642,0.0594,0.0569,0.0561,0.0554,0.0509,0.0501,0.0529,0.0472,0.0466,0.0469,0.0544,0.0438,0.0437,0.0499,0.0504,0.0507,0.067,0,0,0,0,0,0,0.0724,0.071,0.0711,0.0654,0.064,0.0615,0.057,0.056,0.0548,0.0544,0.0508,0.0501,0.0471,0.0472,0.0467,0.054,0.0435,0.0496,0.0501,0.0506,0.0661,0.0679,0.0695,0,0,0,0,0,0.0729,0.0742,0.0711,0.07,0.0636,0.0616,0.0611,0.0575,0.055,0.0563,0.0536,0.0502,0.0502,0.0472,0.0466,0.054,0.0493,0.05,0.0506,0.0654,0.0676,0.0694,0,0,0,0,0,0,0.0825,0.0736,0.0701,0.0692,0.0661,0.0608,0.0623,0.0585,0.0573,0.0573,0.0521,0.0514,0.0547,0.0517,0.0485,0.0575,0.0499,0.0504,0.0614,0.0634,0.065,0.0689,0.0434,0,0,0,0,0,0.0838,0.0814,0.0742,0.0745,0.0729,0.0674,0.0665,0.0637,0.0609,0.0602,0.0573,0.056,0.0569,0.0577,0.0567,0.0609,0.0627,0.0658,0.0675,0.0689,0.0718,0.0802,0.083,0.0529,0.0529,0.0529,0,0,0.0882,0.083,0.0821,0.0763,0.0737,0.0744,0.0669,0.0666,0.069,0.0599,0.0635,0.0607,0.0588,0.0639,0.0655,0.0625,0.0789,0.0697,0.0709,0.073,0.0812,0.0842,0.0868,0.0533,0.0532,0.0532,0,0,0.0966,0.0907,0.0916,0.089,0.0846,0.0813,0.0814,0.0763,0.076,0.0775,0.0733,0.0757,0.0743,0.0769,0.0776,0.088,0.0863,0.087,0.1001,0.1084,0.111,0.1133,0.1217,0.1246,0.0892,0.0893,0.0893,0,0.103,0.1009,0.0928,0.0936,0.0931,0.085,0.088,0.0874,0.0838,0.0856,0.0811,0.0845,0.0823,0.0919,0.0956,0.0926,0.0957,0.0926,0.1109,0.1132,0.1153,0.1233,0.1263,0.0901,0.09,0.0899,0.0899,0,0.1106,0.1099,0.1113,0.1082,0.1077,0.1088,0.1052,0.1062,0.1037,0.1027,0.1089,0.1066,0.1091,0.1099,0.1059,0.1203,0.1174,0.1111,0.1063,0.1193,0.1269,0.1298,0.0914,0.091,0.0908,0.0906,0,0,0.1216,0.1171,0.1177,0.1173,0.1145,0.114,0.1202,0.1222,0.1264,0.126,0.1335,0.137,0.1343,0.1351,0.1318,0.1395,0.1571,0.1326,0.1326,0.142,0.1766,0.184,0.1877,0.1534,0.154,0.1544,0.1769,0,0.13,0.1327,0.1294,0.1345,0.1348,0.1312,0.1369,0.1386,0.1393,0.1445,0.1465,0.1507,0.1445,0.1458,0.1538,0.1535,0.165,0.1517,0.1616,0.1621,0.1679,0.1914,0.2008,0.2225,0.1796,0.1801,0.1804,0,0.1373,0.1371,0.1423,0.1429,0.1434,0.1466,0.1516,0.1555,0.1621,0.1634,0.17,0.1682,0.1796,0.1706,0.1862,0.1774,0.1809,0.1819,0.1826,0.186,0.1749,0.2019,0.2292,0.2238,0.1848,0.1844,0.1841,0,0.143,0.1458,0.1492,0.1492,0.1503,0.1541,0.1559,0.1617,0.1655,0.1751,0.179,0.1898,0.1942,0.2018,0.2039,0.1961,0.2203,0.209,0.2213,0.2215,0.2303,0.2306,0.2549,0.2259,0.2258,0.2257,0.2257,0,0.1493,0.1517,0.1514,0.1523,0.1577,0.1582,0.1657,0.1692,0.1769,0.1839,0.1881,0.1968,0.202,0.213,0.2144,0.2303,0.2306,0.2318,0.2316,0.2363,0.2369,0.2322,0.2232,0.2266,0.2264,0.2262,0.2261,0,0.1522,0.1528,0.1552,0.1578,0.159,0.162,0.1669,0.1723,0.1799,0.1898,0.1933,0.2057,0.2224,0.2297,0.2435,0.2454,0.2538,0.2618,0.2679,0.2682,0.2728,0.2641,0.2695,0.26,0.2822,0.2825,0.2828,0,0.1523,0.154,0.1568,0.1578,0.1583,0.1625,0.1659,0.1726,0.1784,0.1951,0.2008,0.2204,0.2348,0.2615,0.2737,0.2893,0.2704,0.303,0.2915,0.2842,0.2742,0.2482,0.2374,0.3097,0.3102,0.3106,0.3109,0,0.1514,0.1529,0.1542,0.1569,0.1596,0.163,0.1685,0.1735,0.1841,0.1951,0.213,0.2268,0.2583,0.2814,0.3034,0.3124,0.2931,0.3119,0.3048,0.3031,0.2764,0.2632,0.2808,0.3146,0.3143,0.314,0.3138,0.3137,0.1491,0.1497,0.1517,0.1541,0.1574,0.1619,0.1645,0.1738,0.1848,0.2011,0.2171,0.2399,0.278,0.3134,0.3216,0.344,0.3184,0.3406,0.3327,0.3082,0.295,0.3222,0.3532,0.3531,0.353,0.3529,0.3528,0,0.1439,0.1459,0.1482,0.1507,0.1525,0.1564,0.1645,0.1683,0.1805,0.2037,0.2209,0.264,0.299,0.3281,0.3659,0.3645,0.3422,0.3574,0.3251,0.3142,0.3464,0.3439,0.374,0.374,0.374,0.374,0.374,0.374,0.1411,0.1413,0.1432,0.144,0.1462,0.1485,0.1522,0.1615,0.1775,0.2061,0.2319,0.2533,0.3014,0.3532,0.3755,0.373,0.3386,0.3341,0.3117,0.3399,0.3375,0.3351,0.3311,0.358,0.358,0.274,0.2734,0.273]},{"header":{"parameterUnit":"m.s-1","parameterCategory":2,"la1":30.2991,"la2":30.254,"lo1":-89.0895,"lo2":-89.0444,"dy":0.0017,"dx":0.0017,"nx":28,"ny":28,"refTime":"2024-10-01T09:00:00:Z","depth":"0","parameterNumber":3,"parameterNumberName":"V-component_of_CURRENTS"},"data":[0,0,0,0,0,0,0,0,0,0,0,0,0,0,0,0,0,0,0,0,0,0,0,0,0,0,0,0,0,0,0,0,0,0,0,0,0,0,0,0,0,0,0,0,0,0,0,0,0,0,0,0,0,0,0,0,0,0,-0.0785,-0.0787,0,-0.0948,-0.0949,-0.0951,-0.1084,-0.1085,-0.1087,-0.1088,-0.1255,-0.1258,-0.1261,0,0,0,0,0,0,0,0,0,0,0,0,0,-0.0598,-0.0601,-0.0785,-0.0787,-0.079,-0.0947,-0.0949,-0.0952,-0.1083,-0.1085,-0.1087,-0.1089,-0.1254,-0.1257,-0.1261,0,0,0,0,0,0,0,0,0,0,0,0,0,-0.071,-0.0602,-0.0785,-0.0876,-0.0885,-0.0947,-0.095,-0.0952,-0.1083,-0.1085,-0.1088,-0.109,-0.1253,-0.1257,-0.1261,-0.1244,0,0,-0.1275,-0.1277,0,0,0,0,0,0,0,0,-0.0704,-0.0717,-0.086,-0.0869,-0.0881,-0.0999,-0.0945,-0.105,-0.1082,-0.1006,-0.1088,-0.1091,-0.1169,-0.118,-0.1204,-0.1252,-0.1259,-0.1276,-0.1279,-0.128,-0.1282,0,0,0,0,0,0,0,-0.0696,-0.0711,-0.0848,-0.0862,-0.0875,-0.0911,-0.0929,-0.0965,-0.1072,-0.1013,-0.1024,-0.1043,-0.1175,-0.1199,-0.1209,-0.1261,-0.1276,-0.128,-0.1282,-0.1284,-0.1253,-0.125,0,0,0,0,0,0,-0.0676,-0.0703,-0.0843,-0.0853,-0.0798,-0.0913,-0.0933,-0.0957,-0.1072,-0.1092,-0.1041,-0.1049,-0.119,-0.1203,-0.1215,-0.1164,-0.128,-0.1285,-0.1287,-0.1257,-0.1253,-0.1249,0,0,0,0,0,0,-0.0672,-0.0687,-0.0836,-0.0783,-0.0805,-0.0914,-0.094,-0.0959,-0.0985,-0.1093,-0.1114,-0.1047,-0.1192,-0.1209,-0.1226,-0.1173,-0.1287,-0.1291,-0.1261,-0.1255,-0.1251,-0.1085,0,0,0,0,0,0,-0.0665,-0.0684,-0.0693,-0.0781,-0.0807,-0.085,-0.0939,-0.0961,-0.0995,-0.1006,-0.1104,-0.1123,-0.1196,-0.1219,-0.1231,-0.1181,-0.1294,-0.1265,-0.1259,-0.1252,-0.1095,-0.1075,-0.1057,0,0,0,0,0,-0.0658,-0.0668,-0.0693,-0.071,-0.0817,-0.0848,-0.0863,-0.0948,-0.0992,-0.0983,-0.1047,-0.112,-0.1185,-0.122,-0.1235,-0.1185,-0.1269,-0.126,-0.1253,-0.1103,-0.1078,-0.1058,0,0,0,0,0,0,-0.0621,-0.0685,-0.0714,-0.0752,-0.0782,-0.0871,-0.0884,-0.0928,-0.0973,-0.0987,-0.1087,-0.1107,-0.1098,-0.1154,-0.119,-0.1151,-0.1233,-0.1227,-0.1114,-0.1091,-0.1073,-0.1057,-0.1298,0,0,0,0,0,-0.0605,-0.0617,-0.0678,-0.0706,-0.0713,-0.0787,-0.0813,-0.0857,-0.0912,-0.0936,-0.0995,-0.1048,-0.1073,-0.1094,-0.1127,-0.1112,-0.1168,-0.1083,-0.1064,-0.1048,-0.104,-0.1072,-0.1057,-0.1222,-0.1223,-0.1223,0,0,-0.0606,-0.0638,-0.0653,-0.0694,-0.0731,-0.0716,-0.0808,-0.0829,-0.0813,-0.0943,-0.0934,-0.0985,-0.1051,-0.1035,-0.1034,-0.108,-0.1022,-0.1038,-0.1024,-0.1025,-0.1062,-0.1047,-0.1033,-0.1217,-0.1218,-0.1219,0,0,-0.0587,-0.0626,-0.0614,-0.0616,-0.0644,-0.067,-0.0661,-0.0714,-0.0734,-0.0726,-0.0806,-0.082,-0.0866,-0.0899,-0.0924,-0.0815,-0.0918,-0.0818,-0.072,-0.075,-0.0738,-0.0728,-0.0756,-0.075,-0.0813,-0.0813,-0.0813,0,-0.0582,-0.0579,-0.0615,-0.0586,-0.058,-0.0631,-0.0596,-0.0607,-0.0656,-0.0657,-0.0697,-0.0744,-0.0798,-0.0786,-0.0746,-0.0774,-0.0814,-0.0807,-0.0728,-0.072,-0.0712,-0.0744,-0.074,-0.0804,-0.0805,-0.0806,-0.0807,0,-0.0539,-0.0527,-0.0515,-0.0483,-0.0471,-0.0451,-0.0455,-0.0437,-0.0459,-0.0485,-0.0474,-0.0541,-0.0581,-0.0577,-0.0634,-0.0592,-0.0644,-0.07,-0.0793,-0.0686,-0.0726,-0.0724,-0.0791,-0.0794,-0.0797,-0.0799,0,0,-0.054,-0.0495,-0.0485,-0.0446,-0.0411,-0.0397,-0.0335,-0.0308,-0.0284,-0.0303,-0.0285,-0.0303,-0.0361,-0.039,-0.0455,-0.0468,-0.0439,-0.055,-0.0556,-0.0589,-0.0505,-0.0535,-0.0537,-0.0492,-0.0491,-0.049,-0.0547,0,-0.049,-0.0415,-0.0401,-0.0311,-0.0263,-0.0257,-0.0199,-0.0176,-0.0176,-0.0162,-0.021,-0.0223,-0.0283,-0.031,-0.0323,-0.0422,-0.043,-0.0418,-0.0594,-0.0599,-0.0649,-0.0534,-0.0493,-0.054,-0.0546,-0.0546,-0.0546,0,-0.0429,-0.0386,-0.0297,-0.0215,-0.0195,-0.0148,-0.007,-0.0029,-0.0012,-0.0022,-0.0036,-0.0094,-0.0111,-0.0186,-0.0276,-0.0272,-0.0361,-0.0432,-0.0438,-0.0527,-0.0625,-0.065,-0.0538,-0.0662,-0.0545,-0.0545,-0.0545,0,-0.0382,-0.0301,-0.0228,-0.0197,-0.0117,-0.0078,-0.0038,0.0006,0.0042,0.0051,0.0058,0.0018,-0.002,-0.0113,-0.025,-0.027,-0.0361,-0.0422,-0.0524,-0.0529,-0.0558,-0.0567,-0.0598,-0.047,-0.047,-0.047,-0.047,0,-0.0314,-0.0249,-0.0207,-0.0161,-0.0071,-0.0037,0.0047,0.0078,0.0112,0.0159,0.0115,0.0129,-0.0005,-0.0079,-0.0207,-0.035,-0.0334,-0.048,-0.0534,-0.0495,-0.0497,-0.0663,-0.0781,-0.0472,-0.0472,-0.0471,-0.0471,0,-0.0254,-0.0228,-0.0139,-0.0069,-0.0044,0.0019,0.0099,0.0152,0.0172,0.0229,0.0231,0.0206,0.0117,-0.0021,-0.0181,-0.0301,-0.0522,-0.0499,-0.0439,-0.0484,-0.0694,-0.0805,-0.093,-0.1015,-0.0609,-0.061,-0.0611,0,-0.0214,-0.0166,-0.0081,-0.0036,-0.0004,0.0077,0.0136,0.0181,0.0233,0.0279,0.0309,0.0252,0.0235,0.0007,-0.0203,-0.041,-0.0558,-0.053,-0.0553,-0.0671,-0.0834,-0.0891,-0.0958,-0.0522,-0.0522,-0.0522,-0.0522,0,-0.0139,-0.012,-0.006,0.0026,0.009,0.0178,0.0252,0.0301,0.0354,0.0399,0.0444,0.0436,0.0246,0.0092,-0.0187,-0.0355,-0.0627,-0.0538,-0.0671,-0.0763,-0.0817,-0.0936,-0.0529,-0.0521,-0.0521,-0.0521,-0.0521,-0.0521,-0.0099,-0.0049,0.0009,0.0097,0.017,0.0264,0.0337,0.0407,0.0495,0.0579,0.0558,0.0602,0.0391,0.0034,-0.0233,-0.0619,-0.0667,-0.0721,-0.0843,-0.0886,-0.0966,-0.0553,-0.0607,-0.0607,-0.0608,-0.0608,-0.0608,0,-0.0049,0.0,0.0078,0.0179,0.0262,0.0295,0.041,0.0482,0.0585,0.0686,0.0734,0.0731,0.0426,0.0079,-0.0402,-0.0779,-0.0948,-0.1011,-0.1069,-0.1125,-0.0749,-0.0741,-0.0811,-0.0811,-0.0811,-0.0811,-0.0811,-0.0811,-0.0019,0.0053,0.0094,0.0234,0.0306,0.0423,0.0492,0.0595,0.0694,0.0855,0.0957,0.1023,0.0902,-0.0039,-0.0725,-0.0985,-0.1297,-0.1401,-0.1565,-0.1291,-0.1272,-0.1253,-0.1267,-0.1447,-0.1448,-0.1839,-0.1843,-0.1846]}],[{"header":{"parameterUnit":"m.s-1","parameterCategory":2,"la1":30.2991,"la2":30.254,"lo1":-89.0895,"lo2":-89.0444,"dy":0.0017,"dx":0.0017,"nx":28,"ny":28,"refTime":"2024-10-01T09:00:00:Z","depth":"2","parameterNumber":2,"parameterNumberName":"U-component_of_CURRENTS"},"data":[0,0,0,0,0,0,0,0,0,0,0,0,0,0,0,0,0,0,0,0,0,0,0,0,0,0,0,0,0,0,0,0,0,0,0,0,0,0,0,0,0,0,0,0,0,0,0,0,0,0,0,0,0,0,0,0,0,0,0.0998,0.0997,0,0.0942,0.0941,0.0941,0.096,0.0961,0.0963,0.0964,0.0926,0.0924,0.0921,0,0,0,0,0,0,0,0,0,0,0,0,0,0.1038,0.1038,0.0998,0.0997,0.0997,0.0942,0.0941,0.094,0.096,0.0962,0.0963,0.0964,0.0926,0.0924,0.0921,0,0,0,0,0,0,0,0,0,0,0,0,0,0.1006,0.1038,0.0998,0.1,0.0999,0.0942,0.0941,0.094,0.096,0.0962,0.0963,0.0965,0.0927,0.0924,0.0921,0.0864,0,0,0.0911,0.091,0,0,0,0,0,0,0,0,0.1008,0.1004,0.1,0.1,0.0999,0.096,0.0941,0.0916,0.0959,0.0975,0.0964,0.0966,0.0937,0.0933,0.0919,0.0862,0.0861,0.0911,0.0909,0.0907,0.0906,0,0,0,0,0,0,0,0.101,0.1006,0.0976,0.0999,0.0998,0.0974,0.0972,0.0936,0.0947,0.0974,0.0975,0.0968,0.0937,0.0922,0.0918,0.086,0.0911,0.0908,0.0906,0.0905,0.0871,0.0872,0,0,0,0,0,0,0.1019,0.1009,0.0978,0.0974,0.1008,0.0972,0.097,0.0971,0.0947,0.0945,0.0966,0.0969,0.0926,0.0922,0.0917,0.0961,0.0907,0.0904,0.0902,0.087,0.0871,0.0872,0,0,0,0,0,0,0.102,0.1017,0.098,0.099,0.0983,0.097,0.097,0.0969,0.0957,0.0941,0.094,0.0958,0.0928,0.0921,0.0907,0.0956,0.0903,0.09,0.0869,0.087,0.0872,0.0977,0,0,0,0,0,0,0.1021,0.1018,0.1014,0.0991,0.0983,0.0961,0.0968,0.0966,0.095,0.0953,0.0932,0.0931,0.0929,0.0912,0.0904,0.095,0.0897,0.0867,0.0869,0.0871,0.0972,0.0982,0.099,0,0,0,0,0,0.1023,0.1005,0.1015,0.101,0.0982,0.096,0.0955,0.0951,0.0948,0.0946,0.094,0.0932,0.092,0.0909,0.0899,0.0946,0.0866,0.0869,0.0871,0.0968,0.098,0.099,0,0,0,0,0,0,0.102,0.1005,0.1015,0.0995,0.0989,0.0964,0.0949,0.0943,0.0932,0.0935,0.0923,0.0921,0.0937,0.0909,0.0897,0.0942,0.0899,0.09,0.0976,0.0987,0.0996,0.1042,0.0895,0,0,0,0,0,0.1019,0.1004,0.0996,0.0982,0.0978,0.0962,0.0948,0.095,0.0937,0.0933,0.0926,0.0923,0.0934,0.0934,0.0929,0.0926,0.0956,0.0956,0.0965,0.0973,0.1004,0.1077,0.1097,0.088,0.088,0.088,0,0,0.1012,0.1002,0.0993,0.0981,0.0971,0.0987,0.0959,0.0943,0.0973,0.0928,0.0955,0.0944,0.0938,0.0966,0.0971,0.0951,0.1052,0.0976,0.0983,0.101,0.1082,0.1104,0.1123,0.0882,0.0881,0.0881,0,0,0.1002,0.0987,0.0984,0.0989,0.0982,0.0981,0.098,0.0967,0.0979,0.0987,0.0989,0.1011,0.099,0.103,0.1039,0.1083,0.1096,0.1072,0.1158,0.1229,0.1249,0.1267,0.1349,0.1373,0.1079,0.108,0.108,0,0.0995,0.1006,0.0979,0.0996,0.101,0.0988,0.1015,0.1021,0.1013,0.1038,0.1014,0.1054,0.104,0.1118,0.1148,0.1111,0.115,0.112,0.1246,0.1264,0.128,0.136,0.1385,0.1085,0.1084,0.1084,0.1083,0,0.1006,0.1023,0.1019,0.105,0.106,0.1066,0.1089,0.1107,0.1111,0.1129,0.1186,0.1177,0.1216,0.1214,0.1195,0.1308,0.1299,0.125,0.1228,0.1309,0.1387,0.1411,0.1093,0.1091,0.1089,0.1088,0,0,0.097,0.1018,0.1022,0.1062,0.1092,0.1101,0.1162,0.1214,0.1267,0.1276,0.1355,0.1385,0.1384,0.1396,0.1382,0.144,0.1586,0.1401,0.1402,0.1501,0.1765,0.1682,0.1701,0.1559,0.1563,0.1566,0.178,0,0.0992,0.1043,0.1065,0.1134,0.1167,0.1198,0.1258,0.1309,0.1345,0.1412,0.1441,0.1496,0.1453,0.1478,0.1538,0.1564,0.1652,0.1534,0.1656,0.1661,0.1592,0.1727,0.1515,0.168,0.1804,0.1808,0.1811,0,0.1006,0.1043,0.1112,0.1198,0.1215,0.1262,0.1363,0.1414,0.1511,0.1544,0.162,0.1632,0.1738,0.1667,0.1819,0.1744,0.1784,0.1801,0.1809,0.1716,0.1623,0.1613,0.172,0.1852,0.1848,0.1845,0.1843,0,0.1002,0.1078,0.1138,0.1167,0.1258,0.131,0.1359,0.1456,0.152,0.1639,0.1699,0.1803,0.1866,0.1934,0.1979,0.1914,0.2136,0.2042,0.2024,0.2019,0.1856,0.1828,0.2185,0.2184,0.2184,0.2183,0.2183,0,0.1018,0.1067,0.1143,0.1179,0.1261,0.1321,0.1422,0.149,0.1605,0.1697,0.1766,0.1858,0.1935,0.2048,0.2067,0.2143,0.2223,0.2093,0.2084,0.1884,0.1857,0.1999,0.1974,0.2191,0.219,0.2188,0.2187,0,0.1012,0.1059,0.1133,0.123,0.1263,0.1322,0.1446,0.1521,0.1629,0.1758,0.1806,0.1951,0.2095,0.2179,0.2309,0.2258,0.2326,0.2336,0.2104,0.2062,0.2142,0.2121,0.2341,0.2341,0.234,0.2339,0.2339,0,0.1017,0.1055,0.1155,0.1198,0.1245,0.1336,0.1403,0.1521,0.1602,0.1803,0.1863,0.2052,0.2139,0.2314,0.228,0.2343,0.2405,0.2189,0.201,0.2198,0.2167,0.2146,0.2126,0.1855,0.1851,0.1847,0.1844,0,0.1031,0.1063,0.1117,0.12,0.1271,0.1349,0.1448,0.1509,0.1655,0.176,0.1912,0.1997,0.2139,0.2095,0.2167,0.2151,0.2146,0.2114,0.2425,0.1819,0.1749,0.1714,0.1709,0.1812,0.1815,0.1818,0.182,0.1821,0.1033,0.1065,0.113,0.1207,0.1275,0.1338,0.1382,0.1476,0.1575,0.1676,0.1804,0.1849,0.1898,0.1859,0.1867,0.1867,0.1967,0.1875,0.1883,0.1896,0.1773,0.1701,0.1736,0.1738,0.1741,0.1743,0.1745,0,0.1035,0.1076,0.1138,0.1213,0.1258,0.1314,0.1398,0.1413,0.1475,0.1541,0.16,0.147,0.1453,0.1571,0.1485,0.1478,0.1424,0.1468,0.1385,0.1417,0.1445,0.1296,0.1135,0.1134,0.1133,0.1132,0,0,0.104,0.1082,0.1111,0.1173,0.1224,0.1262,0.129,0.1301,0.1325,0.1274,0.1255,0.1287,0.1431,0.1222,0.1224,0.1189,0.1287,0.114,0.1618,0.1547,0.1573,0.1662,0.1465,0,0,0,0,0]},{"header":{"parameterUnit":"m.s-1","parameterCategory":2,"la1":30.2991,"la2":30.254,"lo1":-89.0895,"lo2":-89.0444,"dy":0.0017,"dx":0.0017,"nx":28,"ny":28,"refTime":"2024-10-01T09:00:00:Z","depth":"2","parameterNumber":3,"parameterNumberName":"V-component_of_CURRENTS"},"data":[0,0,0,0,0,0,0,0,0,0,0,0,0,0,0,0,0,0,0,0,0,0,0,0,0,0,0,0,0,0,0,0,0,0,0,0,0,0,0,0,0,0,0,0,0,0,0,0,0,0,0,0,0,0,0,0,0,0,0.0082,0.0082,0,0.0116,0.0116,0.0116,0.0099,0.0098,0.0097,0.0097,-0.0004,-0.0006,-0.0008,0,0,0,0,0,0,0,0,0,0,0,0,0,0.0026,0.0027,0.0082,0.0082,0.0083,0.0116,0.0116,0.0116,0.0099,0.0098,0.0097,0.0096,-0.0003,-0.0006,-0.0008,0,0,0,0,0,0,0,0,0,0,0,0,0,0.0051,0.0027,0.0081,0.008,0.0081,0.0116,0.0116,0.0116,0.0099,0.0098,0.0097,0.0096,-0.0002,-0.0005,-0.0009,-0.0008,0,0,-0.0018,-0.0019,0,0,0,0,0,0,0,0,0.005,0.0053,0.008,0.008,0.0081,0.0104,0.006,0.0069,0.0099,0.0089,0.0097,0.0096,0.0022,0.0017,0.0024,-0.0013,-0.0017,-0.0018,-0.002,-0.0022,-0.0022,0,0,0,0,0,0,0,0.0048,0.0052,0.0092,0.0081,0.0081,0.0087,0.0089,0.0062,0.0056,0.009,0.0089,0.0098,0.0021,0.0027,0.0021,-0.0019,-0.0018,-0.0021,-0.0023,-0.0024,-0.0133,-0.0134,0,0,0,0,0,0,0.005,0.005,0.0091,0.0094,0.0066,0.0089,0.0091,0.0096,0.0059,0.0055,0.0099,0.0097,0.0033,0.0024,0.0017,-0.002,-0.0022,-0.0024,-0.0026,-0.0132,-0.0133,-0.0134,0,0,0,0,0,0,0.0048,0.0053,0.009,0.0075,0.008,0.0091,0.0096,0.0097,0.009,0.0068,0.006,0.009,0.0032,0.0021,-0.0018,-0.0023,-0.0026,-0.0029,-0.0131,-0.0132,-0.0134,-0.0073,0,0,0,0,0,0,0.0046,0.0052,0.0051,0.0075,0.0081,0.0105,0.0098,0.0098,0.0099,0.0096,0.0058,0.0049,0.003,-0.0013,-0.0021,-0.0028,-0.0031,-0.0129,-0.0131,-0.0133,-0.0073,-0.0072,-0.0071,0,0,0,0,0,0.0044,0.0058,0.005,0.0055,0.0081,0.0105,0.0108,0.0111,0.0099,0.0099,0.0069,0.0049,-0.0031,-0.0015,-0.0025,-0.0033,-0.0129,-0.0131,-0.0133,-0.0074,-0.0072,-0.0071,0,0,0,0,0,0,0.0039,0.0058,0.0051,0.0069,0.0079,0.0103,0.0112,0.0106,0.0087,0.0077,0.0045,0.0034,-0.0004,-0.0033,-0.0015,-0.0074,-0.0087,-0.0091,-0.0039,-0.0038,-0.0037,-0.001,-0.0034,0,0,0,0,0,0.0036,0.0047,0.0062,0.0076,0.0082,0.0091,0.0099,0.0098,0.0091,0.0082,0.0053,0.0014,-0.0017,-0.0039,-0.0072,-0.0098,-0.0122,-0.0116,-0.0114,-0.0113,-0.0101,-0.0145,-0.0145,-0.0142,-0.0142,-0.0142,0,0,0.0042,0.0052,0.0059,0.0075,0.0085,0.0105,0.0092,0.0106,0.0112,0.0072,0.0056,0.0018,-0.0025,-0.0053,-0.0074,-0.0078,-0.0128,-0.0116,-0.0113,-0.0102,-0.0147,-0.0147,-0.0147,-0.0143,-0.0143,-0.0143,0,0,0.0077,0.0063,0.0091,0.0096,0.011,0.011,0.011,0.0118,0.0107,0.0091,0.006,0.0023,-0.0028,-0.0049,-0.007,-0.0085,-0.012,-0.0111,-0.0078,-0.0121,-0.012,-0.012,-0.0147,-0.015,-0.0109,-0.0109,-0.0108,0,0.0087,0.0114,0.0102,0.0128,0.0136,0.0112,0.014,0.013,0.0119,0.0109,0.0085,0.0018,-0.0021,-0.0044,-0.0049,-0.0078,-0.0106,-0.0073,-0.0115,-0.0116,-0.0117,-0.0144,-0.0148,-0.0106,-0.0106,-0.0106,-0.0107,0,0.0148,0.0158,0.0175,0.0192,0.0193,0.0211,0.0197,0.0181,0.0153,0.0142,0.0102,0.0053,0.0016,-0.001,-0.0031,-0.006,-0.0079,-0.0105,-0.0108,-0.0113,-0.0143,-0.0148,-0.0102,-0.0103,-0.0104,-0.0104,0,0,0.0211,0.0218,0.0224,0.023,0.0224,0.0236,0.0228,0.0223,0.0222,0.0176,0.0173,0.0111,0.0079,0.0054,0.0013,-0.0024,-0.0055,-0.0063,-0.0067,-0.0069,-0.0142,-0.0149,-0.0155,-0.0092,-0.0092,-0.0093,-0.0157,0,0.0267,0.0312,0.0301,0.0331,0.0348,0.031,0.0309,0.0289,0.0259,0.0242,0.0179,0.0158,0.0105,0.0089,0.0042,-0.0029,-0.0068,-0.0035,-0.0155,-0.0158,-0.0147,-0.0161,-0.0184,-0.0243,-0.0162,-0.0163,-0.0164,0,0.0336,0.0352,0.0392,0.0387,0.0393,0.0403,0.0386,0.0383,0.0343,0.032,0.0279,0.0232,0.018,0.013,0.0012,0.0033,-0.0047,-0.0108,-0.0113,-0.014,-0.0174,-0.023,-0.0255,-0.0173,-0.0172,-0.0171,-0.0171,0,0.0381,0.0412,0.0438,0.0441,0.0437,0.0443,0.0435,0.0407,0.0413,0.0376,0.0376,0.0294,0.0268,0.0149,0.0032,0.0014,-0.0097,-0.0141,-0.0222,-0.0223,-0.0276,-0.028,-0.023,-0.023,-0.0229,-0.0229,-0.0229,0,0.0434,0.0457,0.0463,0.0477,0.0508,0.0487,0.0512,0.0493,0.0484,0.0506,0.0424,0.0429,0.027,0.0191,0.0057,-0.0084,-0.0081,-0.0212,-0.0242,-0.0256,-0.0258,-0.0225,-0.0224,-0.0232,-0.0231,-0.0231,-0.023,0,0.0474,0.0478,0.0511,0.0521,0.053,0.0549,0.0569,0.059,0.0572,0.06,0.0596,0.0532,0.0431,0.0276,0.0101,-0.0031,-0.0177,-0.0228,-0.022,-0.0248,-0.0285,-0.0281,-0.0342,-0.0343,-0.0344,-0.0345,-0.0345,0,0.0498,0.052,0.0547,0.0574,0.0584,0.0612,0.0638,0.0633,0.0661,0.067,0.0692,0.0623,0.0569,0.0319,0.0076,-0.0158,-0.0158,-0.0311,-0.0357,-0.0275,-0.0298,-0.0292,-0.0287,-0.0407,-0.0408,-0.0409,-0.041,0,0.0544,0.0551,0.0572,0.0628,0.0666,0.0705,0.0742,0.0777,0.0785,0.0809,0.0841,0.0804,0.0573,0.0317,0.0009,-0.0145,-0.0281,-0.0334,-0.0262,-0.0364,-0.0339,-0.036,-0.0353,-0.0417,-0.0416,-0.0416,-0.0415,-0.0415,0.0577,0.0599,0.0631,0.0683,0.0731,0.0788,0.083,0.0878,0.0927,0.0933,0.0893,0.0804,0.0553,0.0112,-0.0107,-0.0326,-0.0331,-0.0437,-0.0434,-0.043,-0.0415,-0.0391,-0.0476,-0.0475,-0.0475,-0.0475,-0.0475,0,0.0621,0.0646,0.0691,0.0746,0.0803,0.0829,0.09,0.0935,0.1008,0.0961,0.0926,0.0616,0.0326,0.0104,-0.0258,-0.0478,-0.0492,-0.0509,-0.05,-0.0493,-0.0488,-0.0474,-0.0551,-0.0552,-0.0552,-0.0552,0,0,0.0647,0.0685,0.07,0.0796,0.0852,0.0937,0.0985,0.1037,0.1025,0.0942,0.0842,0.0627,0.0363,0.0077,-0.0205,-0.0365,-0.0367,-0.0389,-0.0317,-0.0269,-0.026,-0.0449,-0.0422,0,0,0,0,0]}],[{"header":{"parameterUnit":"m.s-1","parameterCategory":2,"la1":30.2991,"la2":30.254,"lo1":-89.0895,"lo2":-89.0444,"dy":0.0017,"dx":0.0017,"nx":28,"ny":28,"refTime":"2024-10-01T09:00:00:Z","depth":"4","parameterNumber":2,"parameterNumberName":"U-component_of_CURRENTS"},"data":[0,0,0,0,0,0,0,0,0,0,0,0,0,0,0,0,0,0,0,0,0,0,0,0,0,0,0,0,0,0,0,0,0,0,0,0,0,0,0,0,0,0,0,0,0,0,0,0,0,0,0,0,0,0,0,0,0,0,0.059,0.0591,0,0.063,0.0631,0.0631,0.0678,0.0679,0.068,0.068,0.075,0.0752,0.0753,0,0,0,0,0,0,0,0,0,0,0,0,0,0.0543,0.0544,0.059,0.0591,0.0591,0.063,0.0631,0.0631,0.0678,0.0679,0.068,0.068,0.075,0.0752,0.0753,0,0,0,0,0,0,0,0,0,0,0,0,0,0.0573,0.0544,0.059,0.0618,0.0621,0.063,0.0631,0.0632,0.0678,0.0679,0.068,0.0681,0.075,0.0751,0.0753,0.0748,0,0,0.0759,0.076,0,0,0,0,0,0,0,0,0.0571,0.0574,0.0614,0.0616,0.0619,0.0649,0.064,0.0671,0.0678,0.0658,0.068,0.0681,0.0718,0.0722,0.073,0.0751,0.0754,0.076,0.0761,0.0762,0.0762,0,0,0,0,0,0,0,0.0569,0.0573,0.0607,0.0614,0.0617,0.0624,0.063,0.0646,0.0684,0.066,0.0663,0.0665,0.072,0.0727,0.0732,0.0755,0.076,0.0761,0.0763,0.0763,0.0872,0.0873,0,0,0,0,0,0,0.0561,0.0571,0.0606,0.0609,0.0595,0.0624,0.0631,0.064,0.0683,0.069,0.0664,0.0667,0.0724,0.0729,0.0734,0.0796,0.0762,0.0764,0.0765,0.087,0.0872,0.0874,0,0,0,0,0,0,0.056,0.0564,0.0605,0.0589,0.0595,0.0624,0.0634,0.064,0.0669,0.0686,0.0694,0.0689,0.0725,0.0731,0.0766,0.0797,0.0764,0.0766,0.0868,0.0871,0.0873,0.0878,0,0,0,0,0,0,0.0558,0.0563,0.0574,0.0589,0.0595,0.0622,0.0633,0.064,0.0667,0.0672,0.071,0.0716,0.0726,0.0763,0.0768,0.0799,0.0768,0.0866,0.0869,0.0872,0.0875,0.088,0.0884,0,0,0,0,0,0.0557,0.057,0.0575,0.0579,0.0607,0.0623,0.0627,0.0651,0.0667,0.0681,0.0708,0.0716,0.0788,0.0765,0.0771,0.0803,0.0864,0.0868,0.0872,0.0874,0.0879,0.0884,0,0,0,0,0,0,0.0552,0.0576,0.0582,0.0601,0.0614,0.063,0.0655,0.0661,0.0693,0.0711,0.0724,0.0732,0.078,0.0791,0.0765,0.0848,0.0833,0.0838,0.0833,0.0838,0.0842,0.0825,0.0769,0,0,0,0,0,0.0554,0.058,0.0589,0.0608,0.0622,0.064,0.0653,0.0667,0.069,0.0707,0.0736,0.0771,0.0796,0.0815,0.0845,0.0876,0.0865,0.0908,0.0912,0.0915,0.0908,0.0902,0.0904,0.0887,0.0886,0.0886,0,0,0.0555,0.0575,0.0587,0.061,0.0633,0.0645,0.0653,0.0684,0.0694,0.0709,0.0757,0.0788,0.081,0.0852,0.0876,0.0866,0.0919,0.092,0.0923,0.0913,0.0906,0.0907,0.0908,0.0889,0.0889,0.0888,0,0,0.0566,0.0596,0.0615,0.0629,0.0659,0.0671,0.0682,0.0714,0.0734,0.0766,0.0788,0.0823,0.0876,0.0888,0.0898,0.0941,0.0944,0.0979,0.0982,0.0976,0.0977,0.0977,0.0973,0.0972,0.0979,0.0979,0.0979,0,0.0566,0.0592,0.0621,0.0638,0.0655,0.0683,0.0698,0.0714,0.0752,0.077,0.0789,0.0864,0.0882,0.0909,0.0933,0.0947,0.0953,0.0954,0.0978,0.0978,0.0978,0.0974,0.0973,0.0979,0.0979,0.0979,0.0979,0,0.058,0.0605,0.0626,0.0658,0.0675,0.0703,0.0721,0.0753,0.0788,0.0802,0.0856,0.0882,0.0925,0.0945,0.095,0.0977,0.0984,0.0981,0.0954,0.0979,0.0974,0.0973,0.098,0.098,0.098,0.098,0,0,0.057,0.0624,0.0633,0.065,0.0693,0.0708,0.0738,0.0765,0.079,0.0834,0.0863,0.0907,0.094,0.0954,0.0978,0.0971,0.0976,0.0985,0.0985,0.0962,0.0977,0.0974,0.0973,0.0985,0.0985,0.0985,0.0975,0,0.0575,0.061,0.0636,0.0669,0.069,0.0726,0.0747,0.0775,0.0814,0.0852,0.0876,0.0927,0.0937,0.0979,0.0971,0.0991,0.0975,0.0979,0.0972,0.0972,0.095,0.0972,0.0984,0.0975,0.0975,0.0974,0.0974,0,0.0575,0.0604,0.0636,0.0682,0.0696,0.0718,0.0773,0.0796,0.084,0.0875,0.0919,0.0953,0.0982,0.098,0.0988,0.1002,0.0988,0.0979,0.0978,0.0969,0.0967,0.0946,0.0972,0.0973,0.0973,0.0973,0.0973,0,0.0552,0.0601,0.0634,0.0649,0.07,0.0727,0.0763,0.081,0.0837,0.0905,0.0939,0.0977,0.1012,0.1004,0.1012,0.1012,0.1,0.0992,0.0961,0.0961,0.096,0.096,0.096,0.096,0.096,0.096,0.096,0,0.0543,0.0567,0.0631,0.0646,0.0685,0.0727,0.0775,0.0815,0.0871,0.0906,0.0961,0.099,0.1022,0.1028,0.1016,0.1,0.1005,0.096,0.0957,0.0967,0.0967,0.0959,0.096,0.096,0.096,0.096,0.096,0,0.0507,0.0551,0.0584,0.065,0.0675,0.0705,0.0781,0.0808,0.0876,0.0923,0.0953,0.1009,0.104,0.1046,0.1038,0.101,0.099,0.0968,0.0986,0.0985,0.095,0.0951,0.0939,0.0939,0.0939,0.0939,0.0938,0,0.0492,0.0508,0.0579,0.0605,0.0641,0.0698,0.073,0.0806,0.0837,0.0925,0.0936,0.0996,0.1028,0.1004,0.1022,0.1005,0.0983,0.0966,0.0946,0.0949,0.0947,0.0948,0.095,0.0938,0.0938,0.0938,0.0938,0,0.0457,0.0488,0.0518,0.0573,0.0616,0.0654,0.0713,0.0732,0.0818,0.0879,0.0918,0.0947,0.0972,0.0987,0.0987,0.0964,0.0985,0.0964,0.0964,0.0944,0.0948,0.0947,0.0948,0.0937,0.0938,0.0938,0.0938,0,0.0431,0.0442,0.0489,0.0533,0.0583,0.0607,0.0641,0.0688,0.073,0.0834,0.0844,0.0904,0.096,0.0965,0.0961,0.096,0.0943,0.0906,0.0909,0.0909,0.0909,0.091,0.0883,0,0,0,0,0,0.0405,0.0415,0.0448,0.0492,0.0538,0.0568,0.0627,0.0661,0.0743,0.0755,0.0805,0.0834,0.0871,0.0897,0.089,0.0944,0.0937,0.0932,0.0893,0.0934,0.0935,0.094,0,0,0,0,0,0,0.0386,0.0413,0.0429,0.0454,0.0477,0.0516,0.0551,0.0599,0.0615,0.0703,0.0719,0.0797,0.0829,0.0863,0.0875,0.0886,0.085,0.0977,0.0975,0.0934,0.0935,0.0935,0.094,0,0,0,0,0]},{"header":{"parameterUnit":"m.s-1","parameterCategory":2,"la1":30.2991,"la2":30.254,"lo1":-89.0895,"lo2":-89.0444,"dy":0.0017,"dx":0.0017,"nx":28,"ny":28,"refTime":"2024-10-01T09:00:00:Z","depth":"4","parameterNumber":3,"parameterNumberName":"V-component_of_CURRENTS"},"data":[0,0,0,0,0,0,0,0,0,0,0,0,0,0,0,0,0,0,0,0,0,0,0,0,0,0,0,0,0,0,0,0,0,0,0,0,0,0,0,0,0,0,0,0,0,0,0,0,0,0,0,0,0,0,0,0,0,0,0.0244,0.0244,0,0.0189,0.0188,0.0187,0.02,0.0202,0.0203,0.0204,0.0123,0.012,0.0117,0,0,0,0,0,0,0,0,0,0,0,0,0,0.0252,0.0252,0.0244,0.0244,0.0243,0.0189,0.0188,0.0187,0.02,0.0202,0.0203,0.0205,0.0125,0.0121,0.0117,0,0,0,0,0,0,0,0,0,0,0,0,0,0.0226,0.0252,0.0244,0.0245,0.0244,0.0189,0.0188,0.0187,0.02,0.0202,0.0203,0.0205,0.0126,0.0121,0.0116,0.0048,0,0,0.0101,0.0099,0,0,0,0,0,0,0,0,0.0228,0.0226,0.0245,0.0245,0.0244,0.0205,0.0161,0.014,0.0199,0.0214,0.0204,0.0206,0.0148,0.0142,0.0125,0.0044,0.0041,0.0101,0.0098,0.0095,0.0094,0,0,0,0,0,0,0,0.023,0.0227,0.022,0.0244,0.0244,0.021,0.0209,0.0157,0.017,0.0213,0.0215,0.0211,0.0148,0.0129,0.0123,0.004,0.0101,0.0096,0.0093,0.0091,-0.015,-0.0153,0,0,0,0,0,0,0.0244,0.023,0.0222,0.0219,0.0243,0.0209,0.0208,0.0214,0.0171,0.0167,0.021,0.0212,0.0137,0.0129,0.012,0.0005,0.0095,0.0091,0.0088,-0.0147,-0.0151,-0.0155,0,0,0,0,0,0,0.0245,0.0244,0.0224,0.0224,0.0219,0.0208,0.0214,0.0212,0.02,0.0169,0.0164,0.0201,0.0138,0.0127,0.0064,0.0004,0.0089,0.0084,-0.0143,-0.0148,-0.0153,-0.0204,0,0,0,0,0,0,0.0245,0.0245,0.0249,0.0225,0.022,0.0181,0.0212,0.021,0.0196,0.0199,0.0159,0.0154,0.0139,0.0071,0.0059,-0.0001,0.008,-0.0138,-0.0145,-0.0151,-0.0198,-0.021,-0.022,0,0,0,0,0,0.0246,0.0232,0.025,0.0248,0.0228,0.0179,0.0172,0.0169,0.0194,0.0169,0.0147,0.0155,0.0021,0.0064,0.0051,-0.0012,-0.0135,-0.0143,-0.0151,-0.0192,-0.0207,-0.022,0,0,0,0,0,0,0.0235,0.0231,0.025,0.0239,0.0212,0.0182,0.0159,0.0165,0.0128,0.0134,0.0119,0.0109,0.0025,0.0008,0.0058,-0.0105,-0.0061,-0.0072,-0.0088,-0.0102,-0.0114,-0.0078,0.0076,0,0,0,0,0,0.0237,0.0231,0.0217,0.0207,0.0194,0.018,0.0162,0.0158,0.0127,0.0115,0.0085,0.004,-0.0024,-0.0054,-0.0111,-0.0194,-0.0167,-0.0249,-0.026,-0.0269,-0.0254,-0.0274,-0.0284,-0.018,-0.018,-0.018,0,0,0.0231,0.0228,0.0226,0.0204,0.0187,0.0148,0.0172,0.0136,0.0106,0.0107,0.0046,-0.0001,-0.0055,-0.0149,-0.019,-0.0165,-0.0287,-0.0279,-0.0286,-0.0265,-0.0283,-0.0292,-0.0301,-0.0185,-0.0184,-0.0184,0,0,0.0194,0.0212,0.0186,0.0163,0.0134,0.0119,0.0111,0.0073,0.0059,-0.0012,-0.0023,-0.0087,-0.0189,-0.023,-0.0266,-0.0375,-0.0346,-0.042,-0.0447,-0.0469,-0.0476,-0.0482,-0.0449,-0.0452,-0.0425,-0.0425,-0.0425,0,0.0187,0.0169,0.0165,0.0128,0.0114,0.0108,0.0072,0.0039,-0.0016,-0.0027,-0.004,-0.0176,-0.0224,-0.0312,-0.0366,-0.0397,-0.0388,-0.0384,-0.0478,-0.0483,-0.0488,-0.0453,-0.0455,-0.0428,-0.0428,-0.0428,-0.0427,0,0.0124,0.0115,0.0091,0.0058,0.0033,-0.0003,-0.0032,-0.0064,-0.0082,-0.0106,-0.0193,-0.0267,-0.0333,-0.039,-0.0419,-0.0501,-0.0475,-0.0484,-0.0427,-0.0501,-0.0461,-0.0462,-0.0433,-0.0432,-0.0431,-0.043,0,0,0.0091,0.0059,0.005,0.0052,0.0004,-0.0017,-0.0072,-0.0109,-0.0115,-0.0204,-0.0227,-0.0374,-0.039,-0.0432,-0.0483,-0.0523,-0.0566,-0.0532,-0.0532,-0.0469,-0.058,-0.0568,-0.0567,-0.0598,-0.0599,-0.06,-0.0531,0,0.0047,0.0001,-0.0017,-0.0055,-0.0071,-0.0082,-0.012,-0.0152,-0.0185,-0.0218,-0.0289,-0.0352,-0.0414,-0.0454,-0.0509,-0.0555,-0.0574,-0.058,-0.0544,-0.0541,-0.0497,-0.0571,-0.0603,-0.0532,-0.0532,-0.0532,-0.0532,0,-0.0013,-0.0023,-0.0059,-0.0058,-0.0067,-0.0099,-0.011,-0.0148,-0.0192,-0.0217,-0.0283,-0.0328,-0.0418,-0.0452,-0.0538,-0.0544,-0.0565,-0.059,-0.0588,-0.0554,-0.0533,-0.045,-0.0533,-0.0533,-0.0533,-0.0533,-0.0533,0,-0.0008,-0.0049,-0.0058,-0.0067,-0.0087,-0.0097,-0.0113,-0.0146,-0.0154,-0.0211,-0.0219,-0.0319,-0.0359,-0.043,-0.0508,-0.0528,-0.0564,-0.0584,-0.0572,-0.0568,-0.0568,-0.0562,-0.0614,-0.0614,-0.0614,-0.0614,-0.0614,0,-0.0032,-0.0041,-0.005,-0.0053,-0.0053,-0.0078,-0.0082,-0.0107,-0.0131,-0.0131,-0.0215,-0.0236,-0.0363,-0.0406,-0.0477,-0.0526,-0.0534,-0.0574,-0.0565,-0.0592,-0.0591,-0.0566,-0.0562,-0.0611,-0.0612,-0.0612,-0.0613,0,-0.0026,-0.0038,-0.004,-0.0048,-0.0048,-0.0047,-0.0051,-0.0049,-0.0079,-0.0079,-0.0098,-0.0171,-0.0242,-0.0329,-0.0419,-0.0466,-0.0523,-0.0524,-0.0506,-0.0497,-0.0508,-0.0507,-0.0504,-0.0503,-0.0502,-0.0502,-0.0502,0,-0.0025,-0.0026,-0.0021,-0.0011,-0.0015,-0.0012,-0.0004,-0.0027,-0.0018,-0.0038,-0.003,-0.0093,-0.0151,-0.0235,-0.0356,-0.0449,-0.0474,-0.0473,-0.0546,-0.0512,-0.0503,-0.0504,-0.0504,-0.0501,-0.05,-0.05,-0.05,0,-0.0013,-0.0013,-0.0005,0.002,0.0032,0.0049,0.0058,0.0075,0.0059,0.0041,0.0034,-0.0036,-0.0093,-0.0213,-0.0279,-0.0359,-0.0475,-0.0468,-0.047,-0.0539,-0.0508,-0.0501,-0.0501,-0.0498,-0.0499,-0.0499,-0.0499,0,0.0001,0.0012,0.0027,0.0051,0.0074,0.0102,0.0102,0.0118,0.0122,0.0106,0.0106,0.0019,-0.0041,-0.0162,-0.0234,-0.0312,-0.0346,-0.037,-0.0378,-0.0381,-0.0397,-0.0344,-0.0275,0,0,0,0,0,0.0015,0.0033,0.0058,0.0086,0.0113,0.0123,0.0145,0.0145,0.0143,0.0155,0.0132,0.0074,-0.0048,-0.0112,-0.0184,-0.0244,-0.037,-0.0332,-0.0404,-0.0488,-0.049,-0.0533,0,0,0,0,0,0,0.0023,0.0048,0.0063,0.0114,0.0139,0.0167,0.018,0.0178,0.0183,0.017,0.0106,0.0065,-0.0059,-0.0001,-0.0182,-0.021,-0.0262,-0.0398,-0.0399,-0.0486,-0.0488,-0.049,-0.0536,0,0,0,0,0]}]]